Location: Newark
(29.9790°N, 31.1340°E)
Time: 05:21:07
(UTC+00:00)

Vanguard 1 Rocket - All Passes

Search period start: 19 January 2020 00:00
Search period end: 29 January 2020 00:00
Orbit: 650 x 4226 km, 34.3° (Epoch: 17 January)

Date Brightness Start Highest point End Pass type
(mag) Time Alt. Az. Time Alt. Az. Time Alt. Az.
19 Jan - 07:23:46 10° SW 07:31:28 56° SE 07:46:37 10° ENE daylight
19 Jan - 09:47:57 10° W 09:59:30 80° N 10:22:15 10° E daylight
19 Jan - 12:14:32 10° WNW 12:31:54 83° NNE 12:58:45 10° ESE daylight
19 Jan - 14:43:03 10° WNW 15:05:34 68° SSW 15:30:20 10° SE daylight
19 Jan - 17:16:42 10° W 17:36:38 30° SW 17:54:14 10° S visible
20 Jan - 06:14:28 10° SSW 06:20:32 32° SE 06:30:46 10° ENE daylight
20 Jan - 08:37:00 10° WSW 08:46:17 89° SSE 09:05:28 10° ENE daylight
20 Jan - 11:02:38 10° W 11:16:50 77° N 11:42:12 10° E daylight
20 Jan - 13:29:58 10° WNW 13:50:07 81° SSW 14:16:39 10° ESE daylight
20 Jan - 16:00:23 10° WNW 16:22:34 44° SW 16:44:08 10° SSE visible
20 Jan - 18:46:45 10° WSW 18:52:05 11° SW 18:57:09 10° SW visible
21 Jan - 05:07:12 10° SSE 05:10:14 13° SE 05:13:57 10° E daylight
21 Jan - 07:26:37 10° SW 07:34:09 69° SSE 07:49:22 10° ENE daylight
21 Jan - 09:51:12 10° W 10:02:36 77° N 10:25:05 10° E daylight
21 Jan - 12:17:38 10° WNW 12:34:44 87° NNE 13:01:29 10° ESE daylight
21 Jan - 14:46:05 10° WNW 15:07:46 59° SW 15:32:17 10° SE daylight
21 Jan - 17:21:16 10° W 17:38:35 23° SW 17:54:31 10° S visible
22 Jan - 06:16:54 10° SSW 06:22:59 42° SE 06:33:55 10° ENE daylight
22 Jan - 08:40:11 10° WSW 08:49:19 83° NNW 09:08:12 10° ENE daylight
22 Jan - 11:05:50 10° WNW 11:19:51 79° N 11:45:05 10° E daylight
22 Jan - 13:33:00 10° WNW 13:52:36 74° SSW 14:18:55 10° SE daylight
22 Jan - 16:03:55 10° W 16:24:33 36° SW 16:45:19 10° SSE visible
23 Jan - 05:08:21 10° S 05:12:34 19° SE 05:18:28 10° E daylight
23 Jan - 07:29:38 10° WSW 07:37:01 81° SSE 07:52:05 10° ENE daylight
23 Jan - 09:54:28 10° W 10:05:43 75° N 10:27:58 10° E daylight
23 Jan - 12:20:43 10° WNW 12:37:28 87° SSW 13:04:04 10° ESE daylight
23 Jan - 14:49:14 10° WNW 15:09:57 51° SW 15:33:56 10° SSE daylight
23 Jan - 17:27:11 10° W 17:40:42 17° SW 17:53:37 10° SSW visible
24 Jan - 06:19:36 10° SW 06:25:38 54° SE 06:36:52 10° ENE daylight
24 Jan - 08:43:27 10° W 08:52:26 77° N 09:10:59 10° E daylight
24 Jan - 11:09:00 10° WNW 11:22:49 83° NNE 11:47:52 10° ESE daylight
24 Jan - 13:36:02 10° WNW 13:55:01 65° SSW 14:20:56 10° SE daylight
24 Jan - 16:07:56 10° W 16:26:39 29° SW 16:45:57 10° S visible
25 Jan - 05:10:22 10° SSW 05:15:02 27° SE 05:22:08 10° E daylight
25 Jan - 07:32:48 10° WSW 07:40:01 87° NNW 07:54:50 10° ENE daylight
25 Jan - 09:57:43 10° W 10:08:50 76° N 10:30:52 10° E daylight
25 Jan - 12:23:47 10° WNW 12:40:08 79° SSW 13:06:24 10° ESE daylight
25 Jan - 14:52:37 10° WNW 15:12:09 42° SW 15:35:13 10° SSE daylight
25 Jan - 17:36:48 10° WSW 17:43:05 11° SW 17:49:17 10° SW visible
26 Jan - 06:22:31 10° SW 06:28:28 68° SSE 06:39:44 10° ENE daylight
26 Jan - 08:46:44 10° W 08:55:37 73° N 09:13:51 10° E daylight
26 Jan - 11:12:09 10° WNW 11:25:42 88° NNE 11:50:32 10° ESE daylight
26 Jan - 13:39:11 10° WNW 13:57:25 56° SW 14:22:38 10° SE daylight
26 Jan - 16:12:44 10° W 16:28:53 22° SW 16:45:50 10° S visible
27 Jan - 05:12:49 10° SSW 05:17:39 38° SE 05:25:26 10° ENE daylight
27 Jan - 07:36:01 10° W 07:43:09 78° N 07:57:38 10° ENE daylight
27 Jan - 10:00:57 10° WNW 10:11:54 78° NNE 10:33:43 10° E daylight
27 Jan - 12:26:52 10° WNW 12:42:46 71° SSW 13:08:30 10° SE daylight
27 Jan - 14:56:20 10° W 15:14:27 34° SW 15:36:02 10° SSE daylight
28 Jan - 04:04:17 10° S 04:07:19 16° SE 04:11:02 10° E visible
28 Jan - 06:25:36 10° WSW 06:31:26 84° SSE 06:42:34 10° ENE daylight
28 Jan - 08:50:01 10° W 08:58:47 72° N 09:16:46 10° E daylight
28 Jan - 11:15:16 10° WNW 11:28:31 84° SSW 11:52:59 10° ESE daylight
28 Jan - 13:42:29 10° WNW 13:59:51 47° SW 14:24:00 10° SSE daylight
28 Jan - 16:19:00 10° WSW 16:31:21 16° SW 16:44:20 10° SSW visible
